Location: Rockford
(42.2710°N, 89.0940°W)
Time: 21:34:52
(UTC-05:00)

SPOT 5 - Visible Passes

Search period start: 24 September 2017 00:00
Search period end: 04 October 2017 00:00
Orbit: 623 x 816 km, 98.4° (Epoch: 24 September)

Date Brightness Start Highest point End Pass type
(mag) Time Alt. Az. Time Alt. Az. Time Alt. Az.
24 Sep 5.2 21:02:47 10° NNE 21:02:47 10° NNE 21:02:52 10° NNE visible
24 Sep 5.8 22:42:02 11° NNW 22:42:02 11° NNW 22:42:10 10° NNW visible
25 Sep 5.3 21:51:29 13° N 21:51:29 13° N 21:52:04 10° N visible
27 Sep 5.3 21:49:35 12° N 21:49:35 12° N 21:50:01 10° N visible
29 Sep 5.4 21:47:43 11° N 21:47:43 11° N 21:47:58 10° N visible
01 Oct 5.5 21:45:50 10° N 21:45:50 10° N 21:45:55 10° N visible
